Time,TemperatureF,DewpointF,PressureIn,WindDirection,WindDirectionDegrees,WindSpeedMPH,WindSpeedGustMPH,Humidity,HourlyPrecipIn,Conditions,Clouds,dailyrainin,SoftwareType,DateUTC
2013-08-12 00:06:00,62.7,61.0,29.97,SW,233,4.0,7.0,93,0.00,,,0.00,weatherlink.com 1.10,2013-08-12 04:06:00,
2013-08-12 00:21:00,62.2,61.0,29.97,SW,233,5.0,6.0,94,0.00,,,0.00,weatherlink.com 1.10,2013-08-12 04:21:00,
2013-08-12 00:36:00,62.2,61.0,29.97,SW,221,4.0,5.0,94,0.00,,,0.00,weatherlink.com 1.10,2013-08-12 04:36:00,
2013-08-12 00:51:00,61.7,60.0,29.97,SW,221,4.0,5.0,95,0.00,,,0.00,weatherlink.com 1.10,2013-08-12 04:51:00,
2013-08-12 01:06:00,61.8,61.0,29.97,SSW,211,5.0,6.0,96,0.00,,,0.00,weatherlink.com 1.10,2013-08-12 05:06:00,
2013-08-12 01:21:00,61.4,60.0,29.96,SW,225,4.0,7.0,96,0.00,,,0.00,weatherlink.com 1.10,2013-08-12 05:21:00,
2013-08-12 01:36:00,61.7,61.0,29.96,SSW,204,7.0,8.0,96,0.00,,,0.00,weatherlink.com 1.10,2013-08-12 05:36:00,
2013-08-12 01:51:00,61.8,60.0,29.96,SW,217,5.0,10.0,95,0.00,,,0.00,weatherlink.com 1.10,2013-08-12 05:51:00,
2013-08-12 02:06:00,61.8,60.0,29.96,SSW,209,5.0,9.0,94,0.00,,,0.00,weatherlink.com 1.10,2013-08-12 06:06:00,
2013-08-12 02:21:00,61.7,60.0,29.95,SSW,211,5.0,8.0,94,0.00,,,0.00,weatherlink.com 1.10,2013-08-12 06:21:00,
2013-08-12 02:36:00,61.4,60.0,29.96,SW,229,5.0,7.0,94,0.00,,,0.00,weatherlink.com 1.10,2013-08-12 06:36:00,
2013-08-12 02:51:00,61.4,60.0,29.95,SSW,213,4.0,7.0,95,0.00,,,0.00,weatherlink.com 1.10,2013-08-12 06:51:00,
2013-08-12 03:06:00,61.9,61.0,29.95,SW,227,8.0,11.0,95,0.00,,,0.00,weatherlink.com 1.10,2013-08-12 07:06:00,
2013-08-12 03:21:00,61.7,60.0,29.94,SW,223,5.0,9.0,95,0.00,,,0.00,weatherlink.com 1.10,2013-08-12 07:21:00,
2013-08-12 03:37:00,61.3,60.0,29.94,WSW,249,6.0,9.0,95,0.00,,,0.00,weatherlink.com 1.10,2013-08-12 07:37:00,
2013-08-12 03:52:00,60.6,60.0,29.94,SW,221,7.0,8.0,96,0.00,,,0.00,weatherlink.com 1.10,2013-08-12 07:52:00,
2013-08-12 04:07:00,60.7,60.0,29.94,SW,230,6.0,8.0,96,0.00,,,0.00,weatherlink.com 1.10,2013-08-12 08:07:00,
2013-08-12 04:22:00,60.6,60.0,29.94,WSW,247,7.0,9.0,96,0.00,,,0.00,weatherlink.com 1.10,2013-08-12 08:22:00,
2013-08-12 04:37:00,60.2,59.0,29.93,SW,221,5.0,9.0,96,0.00,,,0.00,weatherlink.com 1.10,2013-08-12 08:37:00,
2013-08-12 04:52:00,60.3,60.0,29.93,SW,227,7.0,8.0,97,0.00,,,0.00,weatherlink.com 1.10,2013-08-12 08:52:00,
2013-08-12 05:07:00,60.3,60.0,29.93,SW,219,4.0,8.0,97,0.00,,,0.00,weatherlink.com 1.10,2013-08-12 09:07:00,
2013-08-12 05:22:00,60.1,59.0,29.92,SW,215,5.0,6.0,97,0.00,,,0.00,weatherlink.com 1.10,2013-08-12 09:22:00,
2013-08-12 05:37:00,60.0,59.0,29.92,SSW,209,5.0,7.0,97,0.00,,,0.00,weatherlink.com 1.10,2013-08-12 09:37:00,
2013-08-12 05:52:00,60.1,59.0,29.93,SW,214,3.0,7.0,97,0.00,,,0.00,weatherlink.com 1.10,2013-08-12 09:52:00,
2013-08-12 06:07:00,60.1,59.0,29.93,SSW,211,5.0,7.0,97,0.00,,,0.00,weatherlink.com 1.10,2013-08-12 10:07:00,
2013-08-12 06:22:00,60.0,59.0,29.92,SW,229,4.0,6.0,97,0.00,,,0.00,weatherlink.com 1.10,2013-08-12 10:22:00,
2013-08-12 06:37:00,60.3,60.0,29.92,SSW,205,7.0,9.0,98,0.00,,,0.00,weatherlink.com 1.10,2013-08-12 10:37:00,
2013-08-12 06:52:00,60.5,60.0,29.91,SSW,205,8.0,9.0,98,0.00,,,0.00,weatherlink.com 1.10,2013-08-12 10:52:00,
2013-08-12 07:07:00,60.7,60.0,29.91,SSW,211,8.0,11.0,97,0.00,,,0.00,weatherlink.com 1.10,2013-08-12 11:07:00,
2013-08-12 07:22:00,60.6,60.0,29.91,SW,235,8.0,11.0,98,0.00,,,0.00,weatherlink.com 1.10,2013-08-12 11:22:00,
2013-08-12 07:37:00,60.4,60.0,29.91,SW,218,6.0,10.0,98,0.00,,,0.00,weatherlink.com 1.10,2013-08-12 11:37:00,
2013-08-12 07:52:00,60.5,60.0,29.91,SSW,209,7.0,10.0,98,0.00,,,0.00,weatherlink.com 1.10,2013-08-12 11:52:00,
2013-08-12 08:07:00,60.8,60.0,29.91,SW,223,9.0,11.0,98,0.00,,,0.00,weatherlink.com 1.10,2013-08-12 12:07:00,
2013-08-12 08:22:00,61.0,61.0,29.91,WSW,238,9.0,12.0,99,0.00,,,0.00,weatherlink.com 1.10,2013-08-12 12:22:00,
2013-08-12 08:37:00,61.0,61.0,29.91,SW,229,8.0,12.0,99,0.00,,,0.00,weatherlink.com 1.10,2013-08-12 12:37:00,
2013-08-12 08:52:00,61.0,61.0,29.91,SW,234,13.0,16.0,99,0.00,,,0.00,weatherlink.com 1.10,2013-08-12 12:52:00,
2013-08-12 09:07:00,61.2,61.0,29.91,SW,230,8.0,15.0,99,0.00,,,0.00,weatherlink.com 1.10,2013-08-12 13:07:00,
2013-08-12 09:22:00,62.1,62.0,29.91,SW,225,7.0,14.0,99,0.00,,,0.00,weatherlink.com 1.10,2013-08-12 13:22:00,
2013-08-12 09:37:00,63.2,62.0,29.90,SSW,203,11.0,16.0,97,0.00,,,0.00,weatherlink.com 1.10,2013-08-12 13:37:00,
2013-08-12 09:52:00,64.5,63.0,29.89,SW,215,8.0,17.0,93,0.00,,,0.00,weatherlink.com 1.10,2013-08-12 13:52:00,
2013-08-12 10:07:00,65.4,63.0,29.88,SW,228,9.0,13.0,91,0.00,,,0.00,weatherlink.com 1.10,2013-08-12 14:07:00,
2013-08-12 10:22:00,65.6,63.0,29.88,SSW,202,10.0,14.0,90,0.00,,,0.00,weatherlink.com 1.10,2013-08-12 14:22:00,
2013-08-12 10:37:00,66.4,63.0,29.88,SSW,201,12.0,13.0,87,0.00,,,0.00,weatherlink.com 1.10,2013-08-12 14:37:00,
2013-08-12 10:52:00,67.6,63.0,29.87,SSW,209,8.0,12.0,85,0.00,,,0.00,weatherlink.com 1.10,2013-08-12 14:52:00,
2013-08-12 11:07:00,67.9,63.0,29.87,South,190,11.0,12.0,83,0.00,,,0.00,weatherlink.com 1.10,2013-08-12 15:07:00,
2013-08-12 11:22:00,69.1,63.0,29.87,South,186,6.0,14.0,81,0.00,,,0.00,weatherlink.com 1.10,2013-08-12 15:22:00,
2013-08-12 11:37:00,69.6,63.0,29.86,SSW,212,7.0,15.0,79,0.00,,,0.00,weatherlink.com 1.10,2013-08-12 15:37:00,
2013-08-12 11:52:00,70.5,63.0,29.86,West,262,11.0,15.0,76,0.00,,,0.00,weatherlink.com 1.10,2013-08-12 15:52:00,
2013-08-12 12:08:00,71.3,62.0,29.86,SW,230,10.0,14.0,72,0.00,,,0.00,weatherlink.com 1.10,2013-08-12 16:08:00,
2013-08-12 12:23:00,71.4,62.0,29.86,WSW,246,10.0,17.0,71,0.00,,,0.00,weatherlink.com 1.10,2013-08-12 16:23:00,
2013-08-12 12:38:00,71.8,61.0,29.86,West,261,9.0,17.0,69,0.00,,,0.00,weatherlink.com 1.10,2013-08-12 16:38:00,
2013-08-12 12:53:00,72.3,61.0,29.86,West,273,9.0,17.0,67,0.00,,,0.00,weatherlink.com 1.10,2013-08-12 16:53:00,
2013-08-12 13:08:00,73.4,61.0,29.85,WNW,291,4.0,13.0,66,0.00,,,0.00,weatherlink.com 1.10,2013-08-12 17:08:00,
2013-08-12 13:23:00,73.5,62.0,29.84,SW,234,13.0,16.0,67,0.00,,,0.00,weatherlink.com 1.10,2013-08-12 17:23:00,
2013-08-12 13:38:00,73.8,62.0,29.84,WSW,250,19.0,19.0,67,0.00,,,0.00,weatherlink.com 1.10,2013-08-12 17:38:00,
2013-08-12 13:53:00,73.0,63.0,29.84,NW,313,10.0,14.0,70,0.00,,,0.00,weatherlink.com 1.10,2013-08-12 17:53:00,
2013-08-12 14:08:00,72.6,65.0,29.84,NW,310,9.0,13.0,76,0.00,,,0.00,weatherlink.com 1.10,2013-08-12 18:08:00,
2013-08-12 14:23:00,72.1,65.0,29.84,WNW,295,9.0,13.0,78,0.00,,,0.00,weatherlink.com 1.10,2013-08-12 18:23:00,
2013-08-12 14:38:00,73.0,66.0,29.83,West,269,6.0,12.0,78,0.00,,,0.00,weatherlink.com 1.10,2013-08-12 18:38:00,
2013-08-12 14:53:00,72.1,64.0,29.82,West,279,10.0,16.0,75,0.00,,,0.00,weatherlink.com 1.10,2013-08-12 18:53:00,
2013-08-12 15:08:00,71.5,65.0,29.83,West,277,12.0,17.0,79,0.00,,,0.00,weatherlink.com 1.10,2013-08-12 19:08:00,
2013-08-12 15:23:00,70.8,62.0,29.82,WSW,255,14.0,21.0,73,0.00,,,0.00,weatherlink.com 1.10,2013-08-12 19:23:00,
2013-08-12 15:38:00,71.0,63.0,29.82,West,262,14.0,21.0,75,0.00,,,0.00,weatherlink.com 1.10,2013-08-12 19:38:00,
2013-08-12 15:53:00,70.7,63.0,29.82,WNW,291,13.0,20.0,77,0.00,,,0.00,weatherlink.com 1.10,2013-08-12 19:53:00,
2013-08-12 16:08:00,69.6,63.0,29.82,West,269,13.0,21.0,79,0.00,,,0.00,weatherlink.com 1.10,2013-08-12 20:08:00,
2013-08-12 16:23:00,69.4,63.0,29.81,West,277,12.0,19.0,81,0.00,,,0.00,weatherlink.com 1.10,2013-08-12 20:23:00,
2013-08-12 16:38:00,69.4,63.0,29.82,WNW,286,13.0,16.0,81,0.00,,,0.00,weatherlink.com 1.10,2013-08-12 20:38:00,
2013-08-12 16:53:00,69.1,64.0,29.81,West,281,11.0,19.0,83,0.00,,,0.00,weatherlink.com 1.10,2013-08-12 20:53:00,
2013-08-12 17:08:00,69.4,64.0,29.81,West,263,14.0,16.0,84,0.00,,,0.00,weatherlink.com 1.10,2013-08-12 21:08:00,
2013-08-12 17:23:00,68.8,64.0,29.81,WNW,294,12.0,13.0,85,0.00,,,0.00,weatherlink.com 1.10,2013-08-12 21:23:00,
2013-08-12 17:38:00,68.3,65.0,29.82,WNW,300,7.0,12.0,88,0.00,,,0.00,weatherlink.com 1.10,2013-08-12 21:38:00,
2013-08-12 17:53:00,67.9,65.0,29.82,NNW,333,8.0,13.0,91,0.00,,,0.00,weatherlink.com 1.10,2013-08-12 21:53:00,
2013-08-12 18:08:00,67.6,64.0,29.82,NNW,340,8.0,14.0,88,0.00,,,0.00,weatherlink.com 1.10,2013-08-12 22:08:00,
2013-08-12 18:23:00,66.2,62.0,29.83,NW,312,3.0,10.0,86,0.00,,,0.00,weatherlink.com 1.10,2013-08-12 22:23:00,
2013-08-12 18:38:00,66.0,61.0,29.82,NNW,335,7.0,13.0,84,0.00,,,0.00,weatherlink.com 1.10,2013-08-12 22:38:00,
2013-08-12 18:53:00,66.2,60.0,29.82,North,355,5.0,12.0,81,0.00,,,0.00,weatherlink.com 1.10,2013-08-12 22:53:00,
2013-08-12 19:08:00,66.5,59.0,29.83,North,355,9.0,20.0,77,0.00,,,0.00,weatherlink.com 1.10,2013-08-12 23:08:00,
2013-08-12 19:23:00,66.1,61.0,29.83,NNE,13,13.0,21.0,82,0.00,,,0.00,weatherlink.com 1.10,2013-08-12 23:23:00,
2013-08-12 19:38:00,65.8,61.0,29.83,North,360,17.0,24.0,83,0.00,,,0.00,weatherlink.com 1.10,2013-08-12 23:38:00,
2013-08-12 19:53:00,65.4,60.0,29.82,NNW,331,12.0,26.0,82,0.00,,,0.00,weatherlink.com 1.10,2013-08-12 23:53:00,
2013-08-12 20:08:00,64.7,59.0,29.83,North,349,12.0,22.0,83,0.00,,,0.00,weatherlink.com 1.10,2013-08-13 00:08:00,
2013-08-12 20:23:00,64.1,59.0,29.83,North,11,13.0,25.0,82,0.00,,,0.00,weatherlink.com 1.10,2013-08-13 00:23:00,
2013-08-12 20:38:00,63.6,58.0,29.84,North,360,17.0,25.0,82,0.00,,,0.00,weatherlink.com 1.10,2013-08-13 00:38:00,
2013-08-12 20:53:00,63.2,57.0,29.84,NNE,24,6.0,21.0,80,0.00,,,0.00,weatherlink.com 1.10,2013-08-13 00:53:00,
2013-08-12 21:08:00,62.7,56.0,29.84,NNW,344,12.0,20.0,80,0.00,,,0.00,weatherlink.com 1.10,2013-08-13 01:08:00,
2013-08-12 21:23:00,62.1,56.0,29.85,North,360,15.0,20.0,80,0.00,,,0.00,weatherlink.com 1.10,2013-08-13 01:23:00,
2013-08-12 21:38:00,61.7,56.0,29.86,NNW,340,13.0,21.0,82,0.00,,,0.00,weatherlink.com 1.10,2013-08-13 01:38:00,
2013-08-12 21:53:00,61.2,56.0,29.87,NE,36,15.0,22.0,82,0.00,,,0.00,weatherlink.com 1.10,2013-08-13 01:53:00,
2013-08-12 22:08:00,60.1,54.0,29.87,NE,36,16.0,24.0,81,0.00,,,0.00,weatherlink.com 1.10,2013-08-13 02:08:00,
2013-08-12 22:23:00,59.8,54.0,29.88,NNE,24,12.0,23.0,81,0.00,,,0.00,weatherlink.com 1.10,2013-08-13 02:23:00,
2013-08-12 22:38:00,59.6,54.0,29.87,NNE,21,10.0,25.0,82,0.00,,,0.00,weatherlink.com 1.10,2013-08-13 02:38:00,
2013-08-12 22:53:00,59.5,54.0,29.87,NE,44,9.0,22.0,83,0.00,,,0.00,weatherlink.com 1.10,2013-08-13 02:53:00,
2013-08-12 23:08:00,59.4,54.0,29.87,North,5,15.0,26.0,82,0.00,,,0.00,weatherlink.com 1.10,2013-08-13 03:08:00,
2013-08-12 23:23:00,59.2,52.0,29.88,North,355,15.0,26.0,78,0.00,,,0.00,weatherlink.com 1.10,2013-08-13 03:23:00,
2013-08-12 23:38:00,58.6,52.0,29.89,NE,34,23.0,25.0,79,0.00,,,0.00,weatherlink.com 1.10,2013-08-13 03:38:00,
2013-08-12 23:53:00,57.8,51.0,29.89,North,5,17.0,22.0,78,0.00,,,0.00,weatherlink.com 1.10,2013-08-13 03:53:00,